Zurück zum Katalog

YAOGAN-30 A

AktivMilitärVLEO
NORAD 42945·PAYLOAD·🇨🇳 China

Gestartet Sep 29, 2017 von Xichang Satellite Launch Center

Loading…

Nächste Überflüge (nächste 24 Stunden)

TLE

AktuellSource: Space-Track

Epoche: Sep 14, 2026, 07:51 UTC

1 42945U 17058A   26257.32751093  .00002468  00000-0  17931-3 0  9991
2 42945  34.9968 205.4310 0002758 225.0171 135.0314 15.03530167489313

Verfolge YAOGAN-30 A in Echtzeit mit AllMySat

Download on the App Store